Wind_Speed
15 15 14 14 14 14 14 13 13 12 12 12 11 11 11 11 10 11 12 12 12 12 12 12 12 12 13 13 13 13 14 14 14 14 15 15 16 16 16 16 16 16 16
15 14 14 13 13 13 13 12 12 12 12 11 11 11 11 11 10 10 10 11 11 12 12 13 13 13 13 13 13 13 13 14 14 14 15 15 15 16 16 16 16 16 16
15 14 14 14 13 12 12 11 12 12 12 11 11 11 11 10 10 10 10 11 10 10 12 12 13 13 13 13 13 14 14 14 14 15 15 15 16 16 16 16 17 17 17
16 15 14 13 12 11 11 11 11 11 11 10 10 9 10 9 8 9 10 11 11 11 11 12 12 12 13 13 13 14 14 15 15 15 15 15 15 16 16 17 17 18 18
15 14 13 12 11 11 10 11 10 9 9 8 9 9 9 9 9 9 10 10 11 11 12 12 12 12 13 13 13 14 14 15 15 15 15 15 15 16 16 16 17 17 18
12 12 12 12 12 11 10 9 9 8 9 8 8 8 8 9 10 11 11 11 11 11 12 11 12 12 12 12 13 14 14 15 15 15 15 15 15 15 16 16 16 16 17
11 11 11 11 11 10 10 9 9 9 9 9 9 9 9 9 10 10 11 11 11 10 10 10 11 12 12 13 13 13 14 14 14 14 14 15 15 15 15 15 16 16 16
11 10 9 9 10 10 9 8 8 8 9 10 10 11 10 10 10 9 10 10 11 10 10 10 11 11 12 13 13 13 13 13 13 14 14 15 15 15 15 15 15 16 16
10 9 9 9 9 9 8 7 8 8 9 9 10 10 11 10 10 10 10 11 10 10 10 10 11 12 12 12 12 12 13 13 14 13 14 14 15 15 15 15 15 15 15
9 9 9 9 9 9 8 8 8 8 8 9 10 10 10 10 10 10 10 10 10 10 10 11 12 12 12 12 12 12 12 13 13 13 13 14 14 14 13 14 15 15 15
10 10 10 9 9 8 8 8 8 8 8 8 9 9 10 10 11 11 11 11 11 11 11 11 12 13 13 12 12 13 12 12 12 12 12 11 12 13 13 14 15 15 15
9 9 9 9 9 9 8 8 8 8 8 9 9 9 9 10 10 10 11 11 11 11 12 12 13 14 14 13 13 13 12 13 12 12 12 12 12 13 14 14 15 15 15
8 8 8 8 8 8 7 7 7 8 8 8 8 9 10 10 10 10 11 11 11 12 12 13 13 13 13 13 13 12 12 12 12 11 12 12 12 12 13 14 15 15 15
9 8 8 8 8 8 8 8 8 9 8 8 8 9 9 9 10 10 11 11 11 12 12 13 13 12 12 12 12 11 11 11 11 11 11 12 12 12 13 14 14 14 15
9 9 8 8 8 8 8 9 9 9 9 10 10 10 10 10 10 11 11 12 12 12 12 12 12 13 13 13 12 11 10 11 11 11 12 12 12 12 13 13 13 14 14
10 10 9 9 9 9 10 10 10 10 10 10 10 10 10 10 10 11 11 11 11 11 12 12 12 12 13 12 11 11 10 11 11 11 12 12 12 13 13 13 13 14 14
12 11 11 10 10 10 10 11 10 10 10 10 10 10 10 10 11 11 11 11 11 11 10 11 11 12 12 12 12 12 11 11 12 12 12 12 13 12 12 12 13 14 14
14 13 13 12 12 12 11 11 11 11 11 11 11 11 11 11 11 10 10 10 10 9 9 9 10 11 11 12 12 11 12 12 12 13 13 13 13 13 13 13 14 14 14
14 14 13 13 13 13 12 12 12 11 11 11 11 11 11 12 12 11 11 11 10 9 9 9 10 11 11 11 11 11 11 12 12 12 12 12 12 13 13 14 14 14 15
15 15 15 14 13 13 13 13 12 12 12 12 12 11 11 12 11 11 11 11 10 10 10 10 11 11 12 11 11 11 11 10 11 11 12 12 12 12 13 13 14 14 14
16 16 15 15 14 14 14 14 13 13 13 13 13 13 12 12 12 11 11 11 11 11 11 11 11 12 11 11 11 11 11 11 11 12 12 12 12 12 12 13 13 14 14
16 16 16 15 15 15 15 14 14 14 14 13 14 13 13 13 12 12 12 11 11 11 11 11 12 11 11 11 11 12 12 13 13 13 13 13 13 13 13 13 14 14 14
16 16 17 16 16 16 16 16 15 15 15 14 14 14 14 14 13 12 12 12 12 12 12 11 11 12 12 11 12 12 13 14 14 14 14 14 14 14 14 14 14 15 15
16 17 18 17 17 17 18 17 16 16 16 15 15 15 14 14 14 14 13 13 12 11 11 10 11 11 11 12 12 13 13 14 14 14 14 15 15 15 14 15 15 15 15
19 19 19 19 18 18 18 19 18 18 17 16 16 15 15 14 14 13 13 13 12 12 11 11 11 11 12 12 13 13 14 14 14 15 15 15 15 15 15 15 15 15 15
21 20 20 19 19 19 19 19 19 19 18 17 16 16 15 15 14 14 14 13 13 13 12 12 12 12 12 13 14 14 15 15 14 15 15 15 15 16 16 15 15 15 15
Wind_Direction
299 300 301 301 296 289 284 282 280 277 277 277 276 273 275 274 273 272 270 268 268 271 273 275 279 277 274 272 271 267 266 267 268 269 269 269 268 267 269 268 267 265 261
298 300 300 301 297 293 287 284 280 276 277 277 275 270 271 267 266 266 270 269 271 274 272 273 278 278 275 272 269 270 270 270 270 271 271 268 267 268 268 266 264 263 261
293 295 298 301 301 295 291 287 282 276 274 271 268 266 266 262 263 265 267 266 269 276 276 276 280 282 278 272 271 270 269 270 271 271 271 268 267 268 266 265 265 263 262
289 290 294 297 299 298 294 288 285 273 268 266 264 267 262 258 263 268 269 268 269 274 278 280 282 283 281 277 274 273 271 270 270 270 271 269 267 267 266 264 265 265 264
290 287 290 292 292 295 295 293 290 275 267 270 269 268 261 254 261 269 271 271 274 276 278 283 283 284 284 280 276 274 272 270 271 270 269 267 267 267 267 267 267 267 266
288 286 290 290 291 294 294 295 287 274 269 269 269 271 265 258 264 270 270 273 275 276 279 283 285 287 286 282 278 275 275 272 272 269 267 267 267 268 267 266 267 268 269
286 289 292 291 291 293 293 297 288 279 274 268 271 272 271 270 270 269 269 272 276 279 280 284 287 288 287 288 284 280 279 275 273 268 266 267 266 266 266 266 267 270 272
287 287 291 294 297 297 298 298 294 288 278 273 272 273 270 272 271 270 270 276 277 278 283 285 288 291 293 293 289 281 278 275 273 271 268 268 268 263 266 268 269 271 271
287 282 284 291 297 297 296 296 292 290 284 277 270 270 269 269 269 272 278 281 278 278 282 286 289 291 295 297 292 283 280 277 275 273 271 272 269 266 266 267 271 273 272
287 282 281 287 292 293 296 293 290 289 286 279 272 279 280 275 274 275 283 281 281 281 283 290 292 291 293 294 291 286 284 281 278 277 276 275 272 269 269 271 272 274 274
283 280 279 282 288 289 292 292 286 283 284 279 277 275 275 276 276 277 280 283 281 282 285 291 295 291 291 293 290 285 283 282 279 280 281 279 276 271 272 273 273 274 275
283 280 278 279 282 286 286 287 287 287 285 279 277 277 277 278 277 282 283 283 284 284 286 292 296 294 290 292 291 287 283 279 277 278 278 278 276 273 272 273 273 275 275
280 281 281 282 278 278 282 287 291 292 293 285 278 281 278 279 281 286 286 284 286 288 290 293 295 294 291 292 292 289 284 277 275 274 274 275 275 275 274 274 275 276 275
278 281 280 281 279 276 279 285 289 295 297 289 286 289 283 282 284 289 289 289 291 291 289 292 293 293 294 295 293 287 284 278 274 274 273 274 275 276 276 277 277 278 277
273 280 279 280 281 279 278 283 288 293 294 291 290 292 287 284 284 286 286 288 290 291 292 292 291 292 294 298 294 287 283 281 279 276 275 276 276 278 279 279 280 279 279
270 274 273 276 283 280 280 284 288 292 293 289 287 290 286 283 283 284 287 290 292 293 293 293 292 292 293 296 293 289 286 285 284 281 278 280 281 280 278 278 278 280 281
269 269 270 272 277 280 282 285 289 291 294 292 289 288 288 286 287 286 288 290 292 293 295 295 292 292 293 297 297 292 287 287 288 286 284 283 284 279 277 277 279 282 282
266 266 269 271 272 277 279 282 287 291 297 294 292 291 289 288 287 287 289 290 292 293 295 294 294 293 294 297 297 294 291 291 290 287 284 283 285 282 277 278 280 282 284
264 265 265 268 270 275 280 283 288 292 296 298 296 294 291 291 287 287 288 290 291 291 294 295 297 298 299 298 295 294 297 295 292 290 289 291 293 291 285 282 282 283 284
266 265 263 264 267 271 277 282 284 289 293 292 291 292 290 292 287 286 284 287 286 288 291 292 296 297 299 299 295 295 298 296 297 298 297 295 295 295 292 290 289 289 289
268 266 263 263 264 268 272 277 279 283 287 287 287 290 291 290 288 285 282 285 286 287 287 288 292 296 299 299 295 294 295 296 298 302 301 298 297 294 293 295 296 295 294
266 264 264 265 264 266 269 272 277 279 280 282 286 287 289 291 287 284 285 285 286 286 286 287 290 293 294 299 298 296 296 296 296 299 299 299 299 296 294 296 298 299 300
264 263 263 265 264 266 270 271 275 278 279 278 281 283 287 289 286 285 284 283 286 287 286 287 288 289 291 295 297 297 297 297 298 299 299 297 299 299 297 298 300 302 301
262 263 263 264 264 267 271 273 276 278 279 277 278 282 285 286 285 284 282 281 284 286 284 283 284 287 288 292 296 297 298 298 298 298 298 297 297 297 295 295 297 299 298
260 261 263 263 264 267 270 272 274 275 276 276 277 283 286 286 285 283 281 282 282 283 281 280 282 285 287 291 295 298 298 297 297 298 297 295 294 294 294 294 294 297 297
263 262 262 262 264 265 266 268 271 272 274 276 278 280 283 285 284 284 283 282 281 282 281 278 281 283 284 288 292 295 295 295 297 299 300 298 295 295 295 292 294 297 297
Height
5828 5827 5827 5825 5824 5824 5824 5823 5823 5823 5823 5823 5824 5824 5824 5824 5823 5823 5822 5822 5822 5822 5822 5822 5822 5822 5823 5823 5823 5823 5823 5823 5824 5824 5824 5824 5824 5825 5825 5825 5826 5826 5826
5825 5825 5824 5823 5822 5821 5820 5820 5820 5820 5820 5820 5821 5821 5821 5821 5820 5820 5820 5820 5820 5820 5820 5819 5819 5819 5819 5819 5819 5820 5819 5820 5820 5820 5820 5820 5821 5820 5821 5821 5821 5822 5822
5822 5821 5820 5820 5818 5818 5817 5817 5817 5816 5817 5817 5818 5818 5818 5817 5818 5818 5817 5817 5817 5817 5817 5816 5816 5816 5816 5816 5816 5816 5816 5816 5816 5816 5816 5816 5816 5816 5817 5817 5817 5817 5818
5819 5818 5817 5816 5815 5814 5813 5813 5813 5813 5813 5814 5814 5814 5815 5815 5815 5815 5814 5814 5814 5814 5814 5813 5813 5812 5812 5812 5812 5812 5812 5812 5812 5812 5812 5812 5812 5812 5812 5812 5812 5812 5813
5815 5814 5814 5813 5812 5811 5810 5810 5809 5809 5810 5811 5811 5812 5812 5812 5812 5812 5812 5811 5811 5811 5811 5810 5810 5809 5809 5808 5808 5808 5808 5808 5807 5807 5807 5807 5808 5807 5808 5808 5808 5808 5808
5812 5811 5810 5809 5809 5808 5807 5806 5806 5806 5807 5808 5808 5809 5809 5809 5809 5809 5809 5809 5808 5808 5808 5807 5807 5806 5805 5805 5804 5804 5803 5803 5803 5802 5802 5803 5803 5803 5803 5803 5803 5803 5803
5809 5808 5807 5806 5806 5805 5804 5804 5804 5804 5804 5805 5806 5806 5806 5806 5806 5806 5806 5806 5805 5805 5805 5804 5803 5802 5801 5801 5800 5799 5799 5798 5798 5798 5798 5798 5798 5799 5798 5798 5798 5798 5798
5805 5805 5804 5803 5803 5802 5801 5801 5801 5801 5801 5802 5803 5803 5803 5803 5803 5803 5802 5802 5802 5802 5801 5801 5800 5799 5798 5797 5796 5795 5794 5794 5794 5793 5793 5793 5793 5794 5794 5794 5794 5794 5794
5803 5802 5801 5801 5800 5799 5799 5798 5798 5798 5799 5799 5799 5800 5800 5799 5799 5799 5799 5799 5799 5798 5798 5797 5796 5795 5794 5793 5792 5791 5790 5790 5789 5789 5789 5789 5789 5789 5790 5790 5790 5790 5790
5800 5800 5799 5798 5797 5797 5796 5796 5795 5796 5796 5796 5797 5796 5796 5796 5796 5796 5796 5796 5796 5795 5794 5793 5793 5791 5790 5789 5788 5787 5787 5786 5786 5785 5785 5785 5785 5785 5785 5786 5786 5786 5786
5797 5797 5796 5796 5795 5795 5794 5793 5793 5793 5793 5793 5793 5793 5793 5793 5793 5793 5793 5793 5792 5792 5791 5790 5789 5788 5786 5785 5784 5783 5783 5782 5782 5782 5781 5781 5781 5781 5781 5781 5781 5781 5781
5795 5794 5794 5794 5793 5792 5792 5791 5791 5791 5790 5790 5790 5790 5790 5790 5790 5790 5789 5789 5788 5788 5787 5786 5785 5784 5783 5781 5780 5779 5779 5778 5778 5778 5778 5777 5777 5777 5777 5777 5777 5777 5776
5792 5792 5792 5791 5791 5790 5790 5789 5789 5788 5788 5787 5787 5787 5787 5787 5787 5786 5786 5785 5784 5784 5783 5782 5781 5780 5779 5777 5776 5775 5774 5774 5774 5774 5774 5773 5773 5773 5772 5772 5772 5772 5772
5790 5790 5790 5789 5789 5789 5788 5788 5787 5786 5785 5785 5785 5785 5784 5784 5784 5783 5782 5781 5780 5780 5779 5778 5777 5776 5775 5774 5772 5771 5771 5770 5770 5770 5770 5770 5769 5769 5768 5768 5767 5767 5767
5788 5788 5788 5787 5787 5787 5786 5786 5785 5784 5784 5783 5782 5782 5782 5781 5780 5779 5778 5777 5776 5776 5775 5774 5774 5773 5772 5770 5769 5768 5767 5767 5766 5766 5766 5766 5765 5764 5764 5763 5763 5762 5762
5785 5785 5785 5785 5785 5785 5784 5783 5783 5782 5781 5780 5780 5779 5779 5778 5777 5776 5775 5773 5772 5772 5771 5770 5770 5769 5768 5767 5766 5765 5764 5764 5763 5763 5762 5762 5761 5760 5760 5759 5759 5758 5758
5782 5782 5782 5782 5782 5782 5782 5781 5780 5780 5779 5778 5777 5776 5775 5774 5773 5772 5771 5770 5769 5768 5767 5767 5767 5766 5765 5764 5763 5762 5761 5761 5760 5759 5758 5758 5757 5756 5756 5755 5755 5754 5753
5779 5779 5779 5779 5779 5779 5779 5778 5778 5777 5776 5775 5774 5773 5772 5771 5770 5769 5768 5767 5766 5765 5764 5764 5763 5763 5762 5761 5760 5759 5758 5758 5757 5756 5755 5754 5753 5752 5751 5751 5750 5750 5749
5775 5776 5776 5776 5776 5776 5776 5775 5775 5774 5773 5772 5771 5770 5769 5768 5767 5766 5766 5765 5764 5763 5762 5761 5761 5760 5759 5758 5757 5756 5755 5754 5753 5752 5751 5750 5749 5748 5747 5747 5746 5745 5745
5771 5772 5772 5772 5772 5773 5773 5772 5772 5771 5770 5769 5768 5768 5767 5766 5765 5764 5763 5762 5761 5760 5760 5759 5758 5757 5756 5755 5754 5753 5752 5751 5750 5749 5748 5747 5746 5745 5744 5743 5742 5741 5740
5766 5767 5768 5768 5768 5769 5769 5769 5768 5768 5767 5766 5765 5764 5763 5762 5761 5760 5760 5759 5758 5758 5757 5756 5755 5754 5753 5752 5751 5750 5749 5748 5748 5746 5745 5744 5742 5742 5741 5739 5738 5737 5736
5762 5762 5763 5763 5764 5765 5765 5765 5764 5764 5763 5762 5761 5760 5759 5759 5758 5757 5756 5756 5755 5754 5754 5753 5752 5751 5750 5749 5748 5747 5746 5745 5745 5744 5742 5741 5739 5738 5737 5736 5735 5733 5732
5757 5758 5759 5759 5760 5760 5760 5760 5760 5760 5759 5758 5757 5757 5756 5755 5754 5753 5753 5752 5752 5751 5750 5749 5749 5748 5747 5746 5745 5744 5743 5742 5741 5740 5739 5737 5736 5734 5733 5732 5731 5729 5728
5753 5754 5754 5754 5755 5755 5755 5755 5756 5755 5754 5754 5753 5753 5752 5751 5750 5749 5749 5748 5748 5747 5747 5746 5745 5744 5744 5743 5742 5741 5740 5739 5737 5736 5735 5733 5732 5730 5729 5728 5727 5726 5724
5748 5748 5749 5749 5749 5750 5750 5750 5750 5750 5750 5749 5749 5748 5747 5747 5746 5745 5745 5744 5744 5743 5743 5742 5742 5741 5741 5740 5739 5738 5736 5735 5733 5732 5731 5729 5728 5726 5725 5724 5723 5722 5720
5742 5742 5743 5743 5743 5744 5744 5744 5745 5745 5745 5744 5744 5743 5743 5742 5742 5741 5741 5740 5740 5739 5739 5739 5738 5738 5737 5736 5735 5734 5732 5731 5730 5728 5726 5725 5723 5722 5721 5720 5719 5718 5716